GFSSGP_700_rhum_168.txt.gz
RH
13 10 9 8 25 24 12 9 11 14 29 35 37 34 40 43 63 64 56 28 42 34 24 23 22 22 21 24 35 50 65 63 52 43 40 30 20 16 14 14 14 17 15 34 40 17 20 22 23
14 14 13 19 29 17 11 10 12 18 26 31 37 50 49 44 43 39 23 32 25 23 22 21 22 24 25 24 24 33 58 70 61 49 45 40 30 21 16 14 15 14 14 13 13 20 16 19 22
15 15 16 30 22 15 12 13 24 33 26 26 33 42 39 35 39 35 21 21 20 18 18 17 20 21 21 22 25 25 31 56 63 58 51 46 42 32 23 17 15 15 15 14 14 21 37 35 18
14 25 24 20 18 15 12 14 21 30 31 29 32 35 35 30 32 21 21 19 18 19 18 17 16 15 11 9 7 17 26 32 48 58 58 56 53 49 36 24 18 16 16 16 15 14 13 15 15
16 25 26 22 18 14 16 16 21 24 24 26 29 36 22 24 19 22 24 18 20 21 20 17 12 9 8 7 5 4 9 23 31 40 52 61 65 60 52 40 26 18 17 18 17 16 14 14 14
25 27 23 18 14 14 18 18 18 23 22 24 30 38 20 19 20 25 24 20 21 22 20 16 11 8 6 5 4 4 3 6 12 21 28 36 45 57 62 55 42 28 20 18 18 18 17 15 14
24 25 23 20 17 14 18 20 19 21 23 24 27 45 25 18 22 27 26 22 22 22 20 17 11 8 5 4 5 5 5 4 4 6 13 22 31 41 52 56 54 44 34 26 19 18 18 18 17
24 23 21 19 17 15 20 20 19 21 22 24 28 45 41 22 23 27 26 23 23 21 19 16 10 7 5 5 6 6 5 5 5 4 4 4 6 20 26 37 47 58 56 54 48 38 27 20 19
24 23 20 16 18 15 19 21 21 21 23 29 36 39 46 36 26 28 24 24 23 20 18 14 9 6 7 7 7 6 5 4 4 3 2 3 4 4 4 5 7 14 24 36 51 54 52 47 37
20 20 18 18 21 21 22 21 20 20 22 24 27 26 26 28 29 29 24 22 20 18 17 12 8 8 8 8 8 8 7 6 5 4 3 2 1 1 1 2 3 3 3 4 7 12 27 40 42
20 19 18 18 19 22 22 18 19 19 21 22 22 23 27 29 30 29 24 24 19 17 16 10 8 10 10 10 9 10 10 10 8 8 6 4 2 2 1 1 1 1 1 1 1 2 3 9 13
26 23 22 22 20 20 19 19 16 18 19 22 25 23 28 31 28 23 24 26 19 17 14 9 9 11 11 12 11 9 10 11 11 10 9 7 5 3 2 1 1 1 1 1 1 1 1 1 1
30 27 26 26 23 21 21 21 18 17 18 19 35 26 27 26 23 24 24 21 17 14 12 8 10 12 12 13 13 11 11 13 13 12 13 13 11 8 4 3 2 2 2 1 1 1 1 1 1
34 31 28 24 23 23 22 21 21 18 17 19 26 23 23 23 24 23 21 17 13 11 10 9 12 12 12 13 13 14 15 15 14 14 13 14 14 13 11 8 4 3 2 2 2 1 1 1 1
34 31 30 31 29 27 24 22 21 21 20 20 19 19 22 23 24 25 18 14 12 10 10 10 12 12 12 13 13 14 14 14 15 14 14 14 14 15 15 14 12 8 5 4 2 2 1 1 1
44 40 36 30 28 26 23 22 21 20 21 22 24 23 25 25 25 22 16 16 14 10 10 11 12 12 13 13 14 15 16 16 16 17 16 16 15 16 16 15 15 14 8 4 3 2 1 1 1
37 39 32 29 24 24 23 22 20 22 21 21 24 22 23 34 23 18 18 19 15 9 10 11 13 13 13 13 13 14 15 17 16 17 18 18 18 19 18 17 16 16 14 8 4 2 2 1 1
35 27 26 26 24 23 23 23 22 21 24 23 29 28 37 42 24 22 18 19 20 11 10 10 13 13 13 13 13 13 15 16 18 18 19 20 21 21 19 18 18 17 15 9 4 3 2 1 1
34 33 30 28 26 24 24 25 23 22 25 25 25 28 34 38 47 33 24 26 23 17 11 11 12 14 14 14 14 15 17 18 20 18 22 24 25 24 21 20 19 17 12 7 4 3 2 2 1
36 33 31 31 30 26 24 24 27 26 25 24 26 28 29 40 50 48 33 29 21 17 13 12 12 14 15 16 16 17 20 22 25 27 30 30 29 25 22 20 17 14 8 4 2 2 2 2 1
34 36 35 35 33 33 32 31 30 27 23 26 26 27 30 34 47 51 36 25 17 14 15 14 14 14 17 18 19 21 26 29 30 34 33 34 32 27 24 21 19 15 9 4 2 2 2 2 2
32 32 33 33 34 34 32 32 29 24 23 23 23 28 28 33 43 46 42 33 21 14 14 15 16 16 19 22 24 30 35 40 40 37 37 38 36 32 27 24 21 18 12 7 3 2 2 2 2
34 33 30 29 31 34 35 29 23 22 23 22 21 27 27 32 37 40 43 40 27 18 15 16 18 19 22 25 31 38 43 45 40 40 42 42 41 36 32 30 29 25 18 9 3 2 2 2 2
32 31 31 32 36 39 33 27 24 21 19 20 23 27 31 36 38 45 49 48 29 19 19 20 22 25 31 35 42 46 44 44 43 45 47 47 42 40 39 38 35 30 19 10 4 2 2 2 2
38 42 42 37 40 36 26 24 23 19 21 25 25 27 31 42 46 48 46 35 25 22 24 28 32 36 41 46 50 45 47 46 48 50 51 50 49 46 43 38 34 30 15 5 2 2 2 2 2
36 37 38 42 37 28 23 24 22 25 25 24 26 32 34 36 41 42 36 32 36 24 28 35 42 43 50 53 47 46 49 49 52 54 56 56 52 48 42 36 29 17 9 4 3 2 2 2 2
40 37 36 37 39 44 34 29 29 30 33 36 28 31 43 40 35 38 28 30 28 30 32 40 51 55 56 48 45 49 50 52 58 65 61 53 50 43 33 18 10 5 4 4 4 4 4 4 4
46 43 49 83 88 64 40 33 30 38 42 47 44 49 57 50 31 31 32 33 33 34 41 51 57 58 49 44 47 50 53 62 72 70 63 55 44 28 13 6 5 6 7 7 6 6 7 7 7
61 57 79 88 93 88 64 40 41 44 56 52 54 51 43 44 36 37 36 38 40 44 44 52 57 52 46 48 52 54 60 70 77 76 59 42 24 10 6 8 9 10 10 10 9 9 10 14 18
61 77 70 79 63 68 54 46 36 47 52 68 66 74 40 38 38 39 40 43 44 45 49 55 58 56 57 59 60 66 78 86 80 55 39 19 9 10 12 14 16 15 15 15 14 13 15 17 26

GFSSGP_700_rhum_171.txt.gz
RH
15 13 12 8 13 17 16 11 15 22 24 27 26 36 38 53 53 58 57 60 60 43 30 22 20 19 18 18 19 19 26 36 42 42 40 39 33 23 17 15 15 15 14 14 17 15 16 23 20
15 15 15 17 22 23 14 14 20 23 32 33 28 29 38 46 50 48 48 46 42 30 23 18 13 12 13 13 17 20 21 31 38 44 42 40 41 35 25 18 15 15 15 15 14 18 36 28 22
16 14 15 26 22 16 17 26 19 20 26 31 31 28 25 28 48 33 27 27 24 22 16 16 16 14 12 11 11 16 22 23 30 40 43 42 42 43 40 28 20 16 16 16 16 15 21 22 18
15 17 18 22 23 18 19 24 19 20 22 22 23 17 26 32 36 29 22 22 19 18 20 19 17 16 13 9 7 6 8 19 24 27 40 47 50 49 49 45 33 22 17 17 17 17 15 14 14
14 28 30 28 24 20 19 18 17 18 18 19 18 18 31 29 30 22 21 21 19 20 22 21 19 16 12 9 6 4 4 4 10 20 26 28 34 42 50 53 50 38 24 18 18 18 18 16 15
19 27 28 26 23 22 19 18 17 21 22 20 22 22 28 23 21 20 23 24 20 21 23 22 20 16 12 9 5 4 4 4 3 5 10 16 20 27 34 39 55 55 40 27 20 18 18 18 18
21 24 24 24 23 20 19 19 18 22 22 22 24 23 27 26 20 21 25 25 22 22 24 23 20 15 11 8 5 5 5 5 5 4 4 4 7 18 21 30 46 54 53 47 42 35 26 20 19
23 24 24 23 19 20 22 21 20 21 24 24 24 24 24 26 21 22 27 27 24 24 25 24 20 15 10 6 5 6 6 5 5 4 4 4 4 4 5 7 17 22 27 35 44 47 52 51 50
21 22 23 16 20 22 22 21 21 20 22 24 24 27 30 34 36 24 27 27 24 25 26 22 18 14 8 6 7 7 6 5 4 4 3 2 2 2 3 4 4 4 4 8 9 12 18 24 30
22 21 20 20 20 19 22 21 21 21 20 22 28 30 35 35 32 28 28 28 26 25 25 20 17 12 7 8 8 8 7 7 6 6 5 4 3 2 1 1 1 1 2 2 2 2 3 3 4
28 22 20 20 20 22 20 21 19 18 20 20 22 21 26 32 26 28 29 30 27 26 24 20 15 10 7 9 10 10 9 9 9 9 8 7 5 3 2 1 1 1 1 1 1 1 1 1 1
37 32 31 25 21 25 22 20 19 16 18 19 20 22 22 22 25 29 30 30 26 26 22 17 13 8 9 10 11 11 10 9 10 12 11 10 10 9 6 3 2 2 1 1 1 1 1 1 1
35 34 31 27 25 26 24 24 21 17 18 19 19 23 22 25 26 30 28 28 28 26 17 15 11 9 10 11 12 12 12 12 12 13 13 13 13 13 12 11 8 6 4 3 2 2 2 1 1
34 34 31 29 29 27 23 23 23 22 20 18 17 17 18 26 26 24 22 23 28 23 14 14 10 10 11 12 12 12 13 13 13 14 13 13 12 13 13 14 13 13 11 8 6 4 3 2 2
44 39 36 31 30 30 29 27 24 23 21 21 19 19 18 21 23 22 22 23 26 22 15 12 10 10 12 13 13 13 14 14 14 13 13 14 14 14 14 13 13 14 14 13 13 10 7 6 4
46 45 43 27 30 27 30 30 26 23 21 21 22 21 20 20 22 22 26 25 25 21 16 12 10 10 12 13 13 13 13 14 15 16 16 14 15 15 15 15 15 15 15 15 14 13 11 7 5
41 51 37 30 30 30 27 28 27 23 22 22 23 23 22 21 21 21 21 21 21 19 16 11 10 10 12 13 13 13 13 14 14 15 17 17 17 16 16 18 18 18 17 16 16 15 14 12 9
35 47 39 36 31 27 23 24 24 23 22 21 23 24 23 24 24 21 21 21 19 18 19 13 11 11 12 14 13 14 14 14 15 16 18 18 18 18 19 20 20 19 19 18 17 16 13 10 9
42 40 38 34 33 29 27 26 24 24 22 22 22 23 23 23 24 26 25 26 24 20 23 16 12 12 11 13 14 15 15 15 15 16 18 20 22 24 26 25 24 22 20 19 18 17 15 9 6
37 37 34 35 34 30 29 27 25 25 26 24 25 24 24 24 27 30 27 27 30 31 31 19 14 13 13 14 15 17 18 18 17 18 20 22 23 28 30 30 28 25 23 22 20 19 17 14 9
36 33 28 36 36 35 36 35 34 30 26 25 25 27 25 26 28 27 28 29 31 37 40 28 18 15 15 15 17 20 21 22 25 25 27 29 32 34 34 35 33 30 28 26 24 22 20 18 13
39 35 29 34 34 34 34 37 34 33 34 33 28 24 27 26 30 33 30 31 33 39 40 34 20 18 18 19 22 24 27 30 32 35 37 38 38 39 40 39 36 34 32 31 31 30 28 26 20
31 32 31 30 34 29 29 32 34 35 29 25 25 24 23 27 27 30 32 32 36 40 41 42 31 21 22 24 28 31 32 36 39 41 42 43 44 46 47 45 43 42 41 39 36 33 30 23 16
33 30 30 33 32 41 32 35 30 28 19 15 16 19 22 27 29 33 36 35 37 37 42 44 39 26 26 29 32 34 38 44 44 46 45 47 49 52 54 53 48 43 38 36 33 31 26 20 10
38 36 48 48 51 48 36 36 32 24 24 23 22 22 24 27 30 31 31 35 35 36 38 44 32 27 31 33 35 42 48 45 44 46 48 51 56 60 57 46 42 41 37 31 27 20 12 8 5
36 37 44 58 52 42 31 35 29 27 28 27 28 28 29 30 33 34 33 33 32 37 42 36 27 29 32 38 48 52 45 43 46 49 51 56 65 64 52 49 44 36 24 14 8 5 5 4 4
43 41 38 38 38 50 39 36 29 28 31 32 32 35 33 33 35 35 29 36 40 41 33 32 30 33 42 53 54 48 42 45 50 53 56 65 72 68 58 45 35 22 10 6 5 5 6 6 7
44 44 39 55 90 75 50 47 37 40 39 46 46 46 49 46 43 44 43 49 37 33 35 34 36 40 47 52 52 46 46 52 55 57 71 76 67 61 48 36 20 10 6 7 8 10 10 12 12
59 57 62 80 98 93 80 52 54 68 62 57 67 67 66 63 65 61 53 42 36 36 40 41 40 46 51 54 52 53 61 66 69 77 79 65 56 47 32 18 11 11 12 13 14 14 15 16 19
89 86 97 98 98 98 82 66 61 58 61 65 78 86 85 83 75 70 57 42 39 41 40 46 51 54 58 56 57 63 75 79 81 81 68 56 42 16 10 12 14 17 20 19 21 22 24 25 28

GFSSGP_700_rhum_174.txt.gz
RH
14 10 10 8 11 11 15 16 22 19 25 48 57 60 59 48 45 41 40 44 47 33 22 20 19 18 16 15 16 19 23 30 38 41 40 34 33 32 22 16 15 16 15 15 14 18 30 22 22
14 13 14 13 12 16 15 36 34 30 27 44 54 52 53 49 54 43 39 39 32 26 22 20 18 14 13 13 14 16 18 20 29 38 43 39 35 34 34 26 19 17 17 16 16 15 23 34 32
15 15 15 15 15 11 15 26 28 32 35 34 36 48 37 30 39 38 36 30 24 21 21 19 16 17 16 15 11 10 11 17 22 28 39 42 40 38 39 39 31 23 18 17 17 16 16 16 18
15 16 17 17 15 20 26 21 28 30 33 28 23 22 19 16 20 29 27 23 22 21 18 18 20 20 17 13 10 8 6 5 10 21 26 32 39 41 43 44 44 38 27 19 18 18 18 16 15
15 16 23 23 17 26 22 20 24 24 18 16 16 16 16 19 30 28 22 22 20 20 21 21 21 19 16 15 12 8 6 4 3 5 13 22 26 27 31 39 47 49 45 30 21 18 19 19 18
16 24 25 24 21 22 20 21 24 22 20 18 18 17 16 20 26 25 23 22 20 21 22 23 22 20 17 16 13 8 5 4 4 4 4 8 14 18 22 30 34 44 52 47 37 26 20 19 19
20 24 24 24 23 22 21 21 24 24 23 22 23 22 22 22 21 22 22 25 23 22 23 24 23 22 18 16 12 7 5 5 5 5 5 4 4 6 10 21 28 35 40 50 47 43 41 33 26
22 24 23 23 23 21 22 22 22 22 24 24 26 26 24 23 23 22 22 26 26 24 24 25 25 22 20 16 12 7 6 6 5 4 4 3 4 4 4 4 8 15 27 31 31 31 31 33 38
22 22 21 20 21 21 21 22 21 21 24 24 25 24 26 26 25 25 23 24 28 25 24 25 24 22 19 14 8 6 7 7 6 5 4 3 2 2 1 2 3 4 4 5 7 9 10 14 18
25 24 19 19 19 20 22 22 22 21 22 25 26 26 25 28 30 34 31 27 27 27 25 24 24 21 16 11 7 8 8 8 7 7 6 6 5 4 3 2 1 1 1 2 2 3 2 3 3
29 28 28 28 24 24 22 22 21 18 20 20 20 21 28 27 26 36 32 27 29 29 25 25 24 20 14 10 8 9 10 10 9 9 8 8 8 8 7 4 3 2 1 1 1 1 1 1 1
34 25 35 30 31 27 24 23 22 20 19 18 19 20 20 19 22 22 22 27 30 29 25 26 24 18 13 9 8 10 11 11 10 10 10 11 11 11 10 9 8 7 4 3 2 2 1 1 1
34 31 29 32 32 26 27 25 24 21 21 19 18 20 20 20 22 23 24 29 30 28 27 24 19 15 11 8 10 11 11 11 12 13 13 13 13 13 12 11 12 12 11 10 8 6 5 4 3
29 32 31 31 32 30 29 26 24 23 24 22 20 18 21 21 21 24 25 27 26 25 26 20 16 14 10 9 11 12 12 12 13 13 12 12 13 14 14 14 13 13 13 13 13 13 12 9 7
28 32 31 26 28 32 30 29 27 25 24 24 22 21 20 18 18 18 22 21 20 22 24 17 16 14 10 11 12 13 12 13 14 15 16 17 16 15 14 14 14 14 14 13 13 13 13 13 13
39 40 43 21 30 31 34 35 25 26 27 24 23 21 21 21 21 21 22 21 21 21 24 22 16 15 11 12 13 13 13 13 13 13 13 14 17 18 16 15 15 15 15 15 15 14 14 14 14
40 41 34 24 28 33 33 33 29 26 27 26 23 22 22 22 22 22 22 21 20 20 22 24 17 15 12 11 12 14 14 14 14 13 14 15 16 18 18 16 16 17 18 18 18 17 16 16 15
26 37 27 30 27 38 36 30 26 24 28 24 23 22 22 24 24 23 22 22 22 23 22 27 20 16 13 11 12 14 16 16 15 15 15 15 16 18 20 20 21 22 22 21 20 19 18 17 16
39 41 45 40 37 40 37 34 28 26 26 23 22 21 23 24 25 24 24 23 23 26 28 31 26 21 15 13 13 15 18 17 17 17 17 18 18 20 24 27 28 26 25 24 23 22 21 20 19
51 42 41 40 37 34 36 36 32 29 28 24 25 24 23 25 26 26 24 23 24 26 29 34 40 38 23 16 15 16 17 18 20 19 19 19 21 24 27 30 31 31 30 30 28 26 25 24 22
55 60 52 46 36 32 34 36 35 31 34 27 26 26 26 25 25 25 25 24 25 27 29 33 40 42 33 20 18 18 21 22 24 24 23 22 23 26 28 31 33 34 33 33 31 29 27 27 29
50 44 42 37 44 34 34 37 34 33 32 33 33 29 30 27 27 26 26 26 26 27 30 35 42 46 42 27 22 21 22 24 26 29 31 33 34 36 37 38 38 41 42 40 38 38 36 35 32
37 39 34 33 37 32 32 34 32 32 31 30 29 33 33 28 29 27 27 27 28 30 31 39 48 51 49 47 30 25 27 31 33 34 39 41 44 44 45 48 51 50 50 46 38 35 34 32 30
42 46 40 34 33 41 34 34 33 32 30 24 18 18 17 16 19 28 28 28 32 32 36 41 50 54 52 45 34 33 34 34 37 41 43 44 46 48 51 55 59 58 48 41 35 32 29 26 23
35 38 47 46 50 46 34 35 33 32 30 25 24 23 24 24 22 20 27 31 36 36 40 48 54 54 44 33 35 36 38 40 46 45 42 45 49 52 56 61 64 60 51 41 37 32 25 16 10
29 34 47 56 47 38 32 39 35 34 32 32 30 28 24 24 23 24 33 38 41 42 48 56 53 45 34 33 39 41 41 48 47 42 44 50 53 56 62 67 61 53 50 44 36 27 16 8 6
45 39 42 43 40 52 40 37 35 30 32 34 33 29 28 30 31 36 49 48 50 57 59 53 40 34 34 37 42 47 52 48 42 45 51 57 63 69 71 60 53 49 42 30 18 12 10 10 11
61 46 45 48 76 75 48 45 44 38 33 41 37 36 33 32 35 48 49 65 64 59 61 42 36 41 43 43 50 53 49 47 50 62 68 70 70 69 63 54 47 31 16 8 8 10 13 15 16
59 86 68 66 60 82 73 66 88 75 83 71 68 56 52 50 55 64 77 76 70 54 59 60 46 42 45 48 53 53 50 54 67 74 72 67 69 64 53 35 13 9 8 9 11 13 16 17 17
49 82 96 99 98 97 80 80 98 99 98 98 86 70 78 89 79 72 89 88 83 68 48 47 45 49 53 57 57 56 56 61 70 76 69 67 61 44 18 10 8 7 6 5 4 4 5 4 5

GFSSGP_700_rhum_180.txt.gz
RH
14 12 8 8 10 10 10 43 34 37 40 34 29 35 31 30 32 34 39 34 36 37 33 27 22 22 20 17 15 15 15 15 14 16 25 29 35 33 32 29 20 17 16 16 16 19 16 30 27
14 13 13 12 13 12 15 34 24 33 38 34 30 38 36 36 38 35 40 32 38 38 33 31 26 22 18 16 17 18 17 14 11 13 18 23 33 35 33 32 32 26 20 17 17 17 17 16 18
16 15 15 14 15 15 13 27 24 24 34 40 39 44 45 41 44 44 43 30 33 34 35 33 24 19 17 19 20 20 18 16 12 8 10 16 26 37 38 34 32 36 34 27 21 19 19 18 17
17 16 16 15 16 18 18 23 23 23 23 42 54 56 48 47 54 45 46 31 33 35 40 30 21 18 20 22 22 21 20 18 13 8 5 7 17 27 32 37 38 38 40 42 37 29 23 20 19
19 17 17 16 17 19 22 23 22 21 23 29 53 54 44 46 51 37 40 30 37 35 34 24 19 21 23 23 24 23 22 18 12 7 5 4 5 9 19 25 28 36 44 47 48 46 37 26 21
20 18 20 19 22 21 23 24 24 25 21 30 50 44 33 27 36 23 23 25 27 28 25 22 21 23 24 25 25 24 22 17 11 6 5 5 5 5 5 7 12 18 24 30 36 47 51 43 31
22 20 20 20 22 20 23 22 22 26 28 29 33 30 27 22 22 22 23 23 23 25 22 20 23 24 26 27 27 25 21 13 8 6 6 6 5 4 4 4 4 5 8 16 27 39 46 50 48
24 23 21 22 23 20 22 22 22 22 26 32 34 32 26 25 25 23 23 23 22 22 21 22 23 25 27 28 28 26 19 10 7 7 6 5 4 4 3 2 2 2 3 4 5 14 27 34 38
22 22 22 22 22 20 22 21 22 22 23 29 32 30 26 26 26 25 24 24 22 23 24 25 25 26 27 28 28 25 16 9 8 8 7 7 6 6 6 5 3 2 1 1 1 2 3 4 5
25 21 22 22 20 19 19 21 21 22 23 21 24 27 30 30 25 23 26 28 25 25 26 27 26 26 27 27 26 24 14 9 9 9 9 9 8 8 8 8 8 7 5 3 2 1 1 1 1
37 27 21 21 21 19 18 20 25 22 23 23 22 20 26 23 22 23 25 34 30 28 28 28 27 27 27 28 26 18 12 9 10 10 11 10 10 10 10 10 10 10 10 11 10 7 4 2 2
39 34 34 29 23 21 22 23 26 26 22 25 25 23 21 20 19 20 22 26 34 34 29 29 29 28 27 28 26 18 11 9 10 11 12 12 13 13 13 13 12 12 11 11 12 13 13 12 10
32 29 32 33 34 30 27 23 30 28 25 26 26 24 23 22 20 20 21 28 35 30 29 30 30 27 25 26 22 18 14 10 12 12 12 13 14 14 14 14 14 14 14 14 14 14 13 13 13
31 28 24 22 26 31 34 30 32 25 29 30 28 27 26 24 23 18 21 21 24 26 30 32 31 27 26 24 20 16 12 11 11 12 12 14 15 16 16 17 18 18 17 15 15 15 15 15 14
27 26 23 21 21 20 23 25 28 28 31 33 32 31 30 29 26 21 22 26 26 25 29 33 29 27 27 24 19 16 12 11 12 12 12 14 14 13 13 14 15 16 19 19 16 15 15 15 15
25 27 27 24 22 20 23 26 25 27 30 30 30 29 28 30 28 25 21 20 25 25 26 27 24 26 28 26 20 16 14 12 12 12 13 13 13 12 13 13 13 14 16 18 20 19 18 18 18
33 38 29 24 24 22 21 26 18 29 34 33 30 32 29 29 29 26 22 22 25 26 27 26 27 30 33 32 24 19 16 13 13 14 13 13 13 13 13 13 14 14 15 15 19 20 20 22 22
38 38 31 27 26 24 23 24 21 35 38 38 34 31 28 31 27 26 24 23 23 25 26 30 33 38 41 40 38 35 22 16 14 14 14 14 15 16 16 16 15 16 15 16 19 21 20 20 22
32 35 34 30 30 33 29 22 17 20 35 37 36 36 32 27 32 30 25 24 23 25 26 30 33 43 46 46 43 37 27 23 19 17 17 18 18 18 18 18 17 17 17 19 22 22 21 21 22
65 66 58 53 44 38 33 26 26 18 24 34 35 35 36 30 30 31 26 23 26 26 27 30 34 43 51 54 49 45 45 41 30 22 21 21 21 20 19 19 18 18 20 23 26 26 25 24 26
54 65 67 59 49 42 41 26 24 22 20 26 31 32 35 36 26 26 24 23 24 26 27 30 36 52 59 62 56 48 47 41 32 28 26 26 26 26 25 24 23 23 26 30 30 29 33 32 31
48 46 50 51 51 68 48 48 36 32 25 24 24 26 29 33 31 25 25 27 30 30 30 35 43 56 66 67 64 56 52 50 46 37 30 30 30 29 28 28 29 32 34 35 37 36 35 34 33
42 44 48 50 50 47 47 44 36 31 33 34 31 31 30 31 34 33 34 35 34 33 34 39 48 63 72 70 67 60 57 57 55 47 38 37 36 34 33 33 35 38 39 42 40 38 36 36 35
39 39 38 40 41 52 47 45 38 37 35 31 31 33 34 31 30 30 31 29 28 35 46 48 58 81 79 74 71 63 61 59 49 45 41 40 38 37 38 40 42 46 50 45 43 44 41 39 36
35 44 51 49 65 50 41 42 40 38 37 36 34 34 32 30 29 28 24 22 26 28 39 59 77 84 83 79 71 65 61 50 38 42 43 42 43 43 43 43 51 55 51 50 48 44 37 33 29
53 45 51 60 53 44 36 45 42 41 41 40 38 36 34 32 32 30 28 29 31 33 41 71 88 90 87 78 71 70 71 79 46 44 44 46 46 43 45 59 59 54 52 50 44 36 29 14 7
64 68 67 58 54 52 40 39 43 44 44 44 44 37 34 32 30 27 24 32 46 50 84 96 97 92 83 88 96 98 96 85 43 47 48 48 42 46 64 63 59 53 50 41 32 13 5 3 3
65 71 78 61 70 63 45 53 50 58 85 84 69 54 44 38 33 29 32 42 58 80 100 100 95 90 95 96 97 96 86 50 51 54 55 47 46 62 66 66 57 51 41 25 5 4 3 3 4
64 65 80 90 95 94 72 82 100 97 97 99 87 83 81 67 53 50 53 66 82 99 100 98 97 98 99 98 90 72 61 74 80 79 62 48 55 64 71 61 52 43 18 4 3 4 4 4 3
52 54 59 90 95 97 97 98 100 98 95 91 96 79 85 86 95 90 99 100 100 100 99 98 99 98 95 98 96 92 96 94 88 62 51 57 66 78 65 55 47 16 4 3 4 5 4 2 2